M0CJS Weather Reports


Display with metric or nautical units.
time (UTC)temp
F
wind
direction
speed
MPH
gust
MPH
rain 1hr
in
rain 24hr
in
rain mn
in
humidity
%
barometer
mb
20260506073515 49 45 6.0 12.0 0.00 0.00 0.00 73 1016.7
20260506072515 49 45 7.0 14.0 0.00 0.00 0.00 73 1016.8
20260506071517 49 45 7.0 13.0 0.00 0.00 0.00 75 1016.7
20260506070537 48 45 8.0 13.0 0.00 0.00 0.00 75 1016.6
20260506062517 45 45 5.0 11.0 0.00 0.00 0.00 79 1016.6
20260506061517 44 45 5.0 11.0 0.00 0.00 0.00 79 1016.4
20260506060517 44 45 6.0 11.0 0.00 0.00 0.00 80 1016.3
20260506050517 44 45 2.0 5.0 0.00 0.00 0.00 85 1016.1
20260506044517 43 45 1.0 4.0 0.00 0.00 0.00 85 1016.2
20260506043517 43 23 2.0 4.0 0.00 0.00 0.00 85 1015.9
20260506042517 43 45 3.0 6.0 0.00 0.00 0.00 85 1016.0
20260506041537 43 45 4.0 9.0 0.00 0.00 0.00 85 1016.0
20260506040517 43 45 4.0 8.0 0.00 0.00 0.00 85 1016.1
20260506035517 44 45 3.0 6.0 0.00 0.00 0.00 85 1016.1
20260506034517 44 45 4.0 8.0 0.00 0.00 0.00 85 1016.1
20260506033517 44 45 3.0 9.0 0.00 0.00 0.00 85 1016.2
20260506032517 44 45 4.0 7.0 0.00 0.00 0.00 84 1016.3
20260506031517 44 45 4.0 8.0 0.00 0.00 0.00 84 1016.3
20260506030517 44 45 4.0 7.0 0.00 0.00 0.00 84 1016.2
20260506025537 44 45 3.0 8.0 0.00 0.00 0.00 84 1016.3
20260506024537 44 45 3.0 6.0 0.00 0.00 0.00 84 1016.2
20260506023516 44 45 3.0 4.0 0.00 0.00 0.00 83 1016.2
20260506022516 44 45 2.0 5.0 0.00 0.00 0.00 83 1016.2
20260506021517 44 45 3.0 6.0 0.00 0.00 0.00 83 1016.3
20260506020516 44 45 2.0 5.0 0.00 0.00 0.00 82 1016.3
20260506015517 44 45 3.0 6.0 0.00 0.00 0.00 82 1016.4
20260506014556 45 45 2.0 6.0 0.00 0.00 0.00 81 1016.4
20260506013517 45 45 4.0 9.0 0.00 0.00 0.00 81 1016.5
20260506012516 45 45 3.0 8.0 0.00 0.00 0.00 80 1016.4
20260506011517 45 45 5.0 9.0 0.00 0.00 0.00 80 1016.4
20260506010517 45 45 5.0 10.0 0.00 0.00 0.00 79 1016.5
20260506005517 45 45 5.0 11.0 0.00 0.00 0.00 79 1016.4
20260506004516 45 45 9.0 14.0 0.00 0.00 0.00 79 1016.4
20260506003516 45 45 5.0 10.0 0.00 0.00 0.00 80 1016.3
20260506002517 46 45 6.0 12.0 0.00 0.00 0.00 79 1016.4
20260506001518 46 45 7.0 12.0 0.00 0.00 0.00 79 1016.4
20260506000516 46 45 7.0 13.0 0.00 0.00 0.00 79 1016.5
20260505235518 46 45 8.0 13.0 0.00 0.00 0.00 81 1016.5
20260505234516 46 45 5.0 9.0 0.00 0.00 0.00 82 1016.5
20260505233518 46 45 5.0 8.0 0.00 0.00 0.00 82 1016.6
20260505232516 47 45 4.0 6.0 0.00 0.00 0.00 81 1016.6
20260505231516 47 45 4.0 11.0 0.00 0.00 0.00 81 1016.6
20260505230518 47 45 5.0 10.0 0.00 0.00 0.00 80 1016.8
20260505225516 47 45 6.0 13.0 0.00 0.00 0.00 80 1016.8
20260505224516 47 45 6.0 10.0 0.00 0.00 0.00 82 1016.7
20260505223518 47 45 6.0 12.0 0.00 0.00 0.00 82 1016.7
20260505222536 48 45 5.0 10.0 0.00 0.00 0.00 82 1016.7
20260505221538 48 45 3.0 7.0 0.00 0.00 0.00 81 1016.7
20260505220516 48 45 4.0 10.0 0.00 0.00 0.00 81 1016.6
20260505215518 48 45 4.0 11.0 0.00 0.00 0.00 80 1016.6
20260505214518 48 45 5.0 11.0 0.00 0.00 0.00 79 1016.7
20260505213516 49 45 6.0 13.0 0.00 0.00 0.00 78 1016.7
20260505212538 49 45 3.0 11.0 0.00 0.00 0.00 78 1016.6
20260505211516 49 45 7.0 15.0 0.00 0.00 0.00 77 1016.6
20260505210516 49 45 6.0 14.0 0.00 0.00 0.00 80 1016.4
20260505205516 50 45 5.0 10.0 0.00 0.00 0.00 83 1016.4
20260505204516 50 45 6.0 11.0 0.00 0.00 0.00 82 1016.2
20260505203517 50 45 6.0 16.0 0.00 0.00 0.00 82 1016.1
20260505202516 50 45 7.0 14.0 0.00 0.00 0.00 82 1016.0
20260505201516 50 45 7.0 14.0 0.00 0.00 0.00 81 1016.0
20260505200558 50 45 7.0 13.0 0.00 0.00 0.00 81 1015.9
20260505195516 50 45 7.0 11.0 0.00 0.00 0.00 81 1015.9
20260505194518 51 45 6.0 12.0 0.00 0.00 0.00 81 1015.7
20260505193537 51 68 5.0 14.0 0.00 0.00 0.00 80 1015.7
20260505192516 51 45 6.0 10.0 0.00 0.00 0.00 80 1015.6
20260505191557 51 45 8.0 13.0 0.00 0.00 0.00 80 1015.5
20260505190519 52 45 8.0 18.0 0.00 0.00 0.00 79 1015.3
20260505185516 53 45 10.0 16.0 0.00 0.00 0.00 77 1015.2
20260505184516 54 45 9.0 17.0 0.00 0.00 0.00 75 1015.0
20260505183516 54 45 5.0 9.0 0.00 0.00 0.00 68 1014.9
20260505182516 55 45 4.0 8.0 0.00 0.00 0.00 68 1014.7
20260505181516 55 45 6.0 12.0 0.00 0.00 0.00 67 1014.7
20260505180516 55 45 5.0 10.0 0.00 0.00 0.00 68 1014.7
20260505175517 55 45 7.0 12.0 0.00 0.00 0.00 66 1014.7
20260505174516 56 45 5.0 10.0 0.00 0.00 0.00 66 1014.7
20260505173516 57 23 4.0 9.0 0.00 0.00 0.00 64 1014.7
20260505172516 57 45 4.0 8.0 0.00 0.00 0.00 63 1014.7
20260505171516 57 45 4.0 9.0 0.00 0.00 0.00 63 1014.7
20260505170535 57 45 3.0 7.0 0.00 0.00 0.00 63 1014.8
20260505165536 57 45 4.0 7.0 0.00 0.00 0.00 62 1014.8
20260505164516 57 23 4.0 9.0 0.00 0.00 0.00 62 1014.9
20260505163515 57 0 4.0 8.0 0.00 0.00 0.00 61 1014.8
20260505162515 57 45 2.0 5.0 0.00 0.00 0.00 65 1014.8
20260505161516 57 45 5.0 9.0 0.00 0.00 0.00 63 1014.8
20260505160515 57 45 4.0 7.0 0.00 0.00 0.00 63 1014.9
20260505152536 57 45 3.0 8.0 0.00 0.00 0.00 65 1015.1
20260505151515 57 23 3.0 7.0 0.00 0.00 0.00 65 1015.0
20260505150515 58 0 4.0 8.0 0.00 0.00 0.00 64 1015.1
20260505140515 58 23 4.0 10.0 0.00 0.00 0.00 65 1015.2
20260505124537 57 23 4.0 10.0 0.00 0.00 0.00 67 1015.4
20260505123517 57 0 5.0 9.0 0.00 0.00 0.00 67 1015.4
20260505122537 57 45 6.0 12.0 0.00 0.00 0.00 67 1015.4
20260505121537 57 0 5.0 11.0 0.00 0.00 0.00 67 1015.3
20260505120537 57 45 4.0 9.0 0.00 0.00 0.00 68 1015.4
20260505115537 57 45 4.0 8.0 0.00 0.00 0.00 66 1015.3
20260505114517 57 23 5.0 10.0 0.00 0.00 0.00 67 1015.5
20260505113537 57 45 4.0 7.0 0.00 0.00 0.00 67 1015.4
20260505112517 57 45 4.0 6.0 0.00 0.00 0.00 69 1015.4
20260505111517 57 0 4.0 8.0 0.00 0.00 0.00 68 1015.5
20260505110517 58 23 4.0 8.0 0.00 0.00 0.00 67 1015.5
20260505101517 57 23 3.0 6.0 0.00 0.00 0.00 71 1015.8
20260505100557 58 23 3.0 8.0 0.00 0.00 0.00 69 1015.8
20260505095517 58 293 4.0 8.0 0.00 0.00 0.00 69 1015.9
20260505094517 60 45 3.0 6.0 0.00 0.00 0.00 63 1015.8
20260505093517 60 45 5.0 9.0 0.00 0.00 0.00 63 1015.9
20260505092517 60 45 4.0 8.0 0.00 0.00 0.00 64 1015.9
20260505091517 59 23 3.0 7.0 0.00 0.00 0.00 67 1015.9
20260505090517 59 23 5.0 10.0 0.00 0.00 0.00 66 1015.9
20260505085517 59 23 4.0 8.0 0.00 0.00 0.00 69 1015.9
20260505084516 58 23 4.0 8.0 0.00 0.00 0.00 70 1016.0
20260505083517 57 23 4.0 8.0 0.00 0.00 0.00 73 1016.0
20260505082557 55 23 3.0 7.0 0.00 0.00 0.00 76 1016.0
20260505081537 55 23 3.0 6.0 0.00 0.00 0.00 79 1016.1
20260505080517 54 0 2.0 5.0 0.00 0.00 0.00 80 1016.2
20260505075517 55 0 2.0 7.0 0.00 0.00 0.00 79 1016.3
20260505074517 53 0 3.0 4.0 0.00 0.00 0.00 83 1016.1